This demonstration page uses our WeatherBlox Daily Observations layout. Learn more.

41.55636, -103.73856

Hourly Observations for August 13, 2019

Temp ( °F °C ) Dew Point ( °F °C ) Humidity (%) Winds ( mph kmh ) Pressure ( in mb ) Visibility ( mi km ) Precip ( " mm )
12:58 am 00:58 Clear 77 25.2 54 12.4 45 45 E 9 15 29.95 1014 10 16.0934 0 0
1:58 am 01:58 Clear 71 21.5 58 14.2 63 63 ESE 12 19 29.96 1015 10 16.0934 0 0
2:58 am 02:58 Partly Cloudy 67 19.7 57 13.9 69 69 ESE 10 17 30 1016 10 16.0934 0 0
3:58 am 03:58 Clear 69 20.3 54 12.3 60 60 SE 10 17 30.01 1016 10 16.0934 0 0
4:58 am 04:58 Clear 66 18.7 55 13 70 70 SE 12 19 30.02 1017 10 16.0934 0 0
5:58 am 05:58 Clear 66 18.9 56 13.2 70 70 SSE 15 24 30.02 1017 10 16.0934 0 0
6:58 am 06:58 Clear 64 18 56 13.4 75 75 SE 15 24 30.01 1016 10 16.0934 0 0
7:58 am 07:58 Clear 63 17.4 57 13.9 80 80 E 13 20 30.01 1016 10 16.0934 0 0
8:58 am 08:58 Clear 60 15.6 56 13.5 87 87 E 5 7 30.02 1017 10 16.0934 0 0
9:58 am 09:58 Clear 60 15.8 57 13.8 88 88 SE 7 11 30.03 1017 10 16.0934 0 0
10:58 am 10:58 Clear 61 16 57 13.8 87 87 SSE 8 13 30.03 1017 10 16.0934 0 0
11:58 am 11:58 Clear 58 14.5 56 13.2 92 92 NNW 3 6 30.05 1018 10 16.0934 0 0
12:58 pm 12:58 Sunny 58 14.5 53 11.9 85 85 WSW 3 6 30.06 1018 10 16.0934 0 0
1:58 pm 13:58 Sunny 62 16.5 55 13 80 80 NNW 6 9 30.08 1019 10 16.0934 0 0
2:58 pm 14:58 Sunny 65 18.1 53 11.6 66 66 WNW 12 19 30.1 1019 10 16.0934 0 0
3:58 pm 15:58 Sunny 67 19.2 57 13.7 71 71 NW 10 17 30.11 1020 10 16.0934 0 0
4:58 pm 16:58 Mostly Sunny 68 20.2 57 13.7 66 66 NNE 3 6 30.14 1021 10 16.0934 0 0
5:58 pm 17:58 Partly Cloudy 72 22.4 55 12.6 54 54 Calm 30.12 1020 10 16.0934 0 0
7:58 pm 19:58 Partly Cloudy 75 24 59 14.9 57 57 ENE 14 22 30.1 1019 10 16.0934 0 0
8:58 pm 20:58 Mostly Sunny 76 24.3 57 13.9 52 52 NNE 10 17 30.09 1019 10 16.0934 0 0
9:58 pm 21:58 Mostly Sunny 76 24.6 56 13.6 50 50 NE 14 22 30.07 1018 10 16.0934 0 0
10:58 pm 22:58 Sunny 75 24 54 12.4 48 48 E 14 22 30.07 1018 10 16.0934 0 0
11:58 pm 23:58 Sunny 75 23.8 54 12.1 48 48 ENE 16 26 30.09 1019 10 16.0934 0 0

Powered by AerisWeather